Wind_Speed
4 2 4 9 6 9 18 18 17 15 15 16 14 17 19 18 12 7 12 17 18 19 21 23 27 31 31 29 26 29 30 30 27 25 20 18 17 17 18 15 16 16 16 15 15 17 18 17 17
2 6 6 9 2 14 14 18 17 13 10 10 13 16 22 20 19 15 13 13 16 19 22 24 31 29 27 28 29 30 28 25 23 20 19 18 17 18 16 14 14 15 14 15 16 17 17 17 15
1 8 13 1 11 15 14 15 12 14 11 10 14 15 11 4 14 9 14 15 16 19 21 26 29 31 28 29 28 27 24 23 22 21 20 18 17 17 15 15 14 12 13 15 16 17 17 17 15
5 7 11 13 18 17 19 13 20 17 15 13 17 15 12 7 8 13 15 14 18 20 22 25 28 27 29 27 25 25 23 24 24 23 21 19 18 17 15 15 12 12 13 15 15 17 16 15 13
6 12 3 15 19 18 14 19 20 16 17 17 20 20 15 19 19 17 16 16 20 23 25 27 26 25 25 24 22 21 23 23 22 20 19 18 17 17 16 14 12 13 12 15 15 13 11 11 11
11 11 4 15 17 17 13 15 16 18 17 19 19 19 14 15 18 16 15 21 22 26 24 21 28 29 21 22 20 19 19 18 17 17 17 15 16 15 14 14 13 11 11 13 11 10 9 9 9
16 4 10 14 17 17 9 18 21 18 17 15 14 17 14 16 17 17 19 20 22 22 23 23 26 31 22 25 18 16 17 16 14 13 13 14 14 14 14 13 12 10 7 7 8 7 7 6 7
14 4 9 14 15 19 9 18 18 18 13 10 8 9 15 18 20 18 24 18 22 22 21 22 23 33 31 22 17 17 12 9 6 7 9 10 13 13 13 12 10 9 7 6 5 5 4 5 6
11 4 9 12 14 15 9 17 17 18 18 17 19 22 24 23 19 17 17 19 21 21 25 24 25 28 30 24 23 13 6 4 1 3 8 13 8 6 9 7 8 8 8 7 4 2 2 3 7
14 10 8 6 9 4 7 19 15 17 19 23 26 24 23 20 20 16 16 19 19 17 21 22 24 27 23 23 15 14 7 1 3 4 10 5 2 6 4 9 11 10 10 9 10 10 3 2 3
7 12 5 13 8 2 12 11 5 11 18 18 25 25 22 20 20 17 20 20 20 20 20 19 23 18 22 20 16 13 8 8 2 3 5 4 3 3 3 6 8 8 8 7 8 10 6 2 4
5 5 5 8 9 2 15 10 19 20 21 22 24 24 22 20 22 22 19 20 19 19 18 18 17 19 15 18 15 10 9 3 1 2 4 5 2 5 1 2 2 7 4 6 1 1 5 4 4
8 8 3 7 8 11 9 17 16 21 21 23 24 22 21 20 19 21 21 20 20 20 18 14 16 13 14 11 7 3 3 2 3 6 5 2 1 3 2 3 3 3 3 2 3 4 4 7 5
6 4 2 5 10 8 16 12 21 18 22 23 21 21 20 20 20 20 19 19 19 18 17 16 16 15 17 12 10 12 9 7 6 3 8 10 4 6 4 4 2 6 10 7 4 5 6 7 7
6 9 10 11 12 7 19 10 18 20 21 21 19 19 18 19 19 20 19 19 18 17 16 14 14 14 14 12 9 9 8 7 7 6 8 10 7 8 7 4 6 3 7 11 8 7 6 7 7
12 15 12 11 10 10 8 13 17 19 21 20 18 19 18 18 18 18 19 18 17 16 16 14 13 13 13 11 10 9 8 7 7 7 7 8 9 9 7 7 7 9 8 9 10 10 9 9 10
11 9 18 11 9 12 10 16 17 19 18 19 18 18 18 18 18 18 18 18 18 17 16 15 14 13 12 11 9 8 8 7 8 9 9 10 10 9 9 8 9 15 9 11 10 10 12 12 14
11 9 14 14 10 11 10 18 14 18 19 19 19 19 19 19 19 19 19 18 18 18 17 16 15 15 14 11 11 9 8 8 7 8 8 10 8 9 10 8 11 16 14 12 12 13 13 14 14
11 3 8 10 7 8 11 18 14 16 19 19 20 19 19 19 18 19 19 19 18 18 17 17 16 16 15 14 12 11 9 10 9 9 9 10 10 11 13 11 12 12 14 17 18 18 16 15 14
8 8 9 7 7 10 7 14 16 16 16 20 20 20 19 19 20 20 20 20 19 19 19 18 18 18 16 14 13 12 10 9 10 10 9 11 12 13 14 16 14 14 17 16 18 18 17 17 15
12 11 11 8 10 12 4 12 15 16 16 19 19 20 20 20 20 22 22 21 20 20 20 19 18 17 16 16 13 12 12 12 13 13 8 11 13 13 17 15 17 19 19 19 21 19 20 19 18
16 10 5 7 7 13 13 9 16 18 15 16 21 21 21 21 19 21 22 22 22 21 19 19 18 18 16 14 13 13 11 10 12 13 6 12 13 13 15 16 16 17 19 20 21 21 21 21 20
6 2 7 11 12 16 11 9 18 18 18 19 21 22 23 22 22 21 21 21 21 19 19 19 20 19 18 16 14 12 10 7 5 4 7 10 10 14 12 11 12 15 15 17 20 21 22 24 25
4 5 6 9 13 12 10 9 14 17 16 16 27 28 25 25 24 21 20 20 19 19 19 18 20 19 17 17 14 12 14 10 5 4 4 6 8 9 9 9 11 21 20 18 20 21 22 23 24
9 12 8 7 9 8 10 7 8 4 9 5 7 29 28 27 26 24 22 22 21 21 21 19 19 19 19 17 16 13 11 12 9 4 5 7 10 11 13 13 15 18 20 22 25 27 27 26 27
13 18 10 4 11 10 6 7 5 8 3 2 7 16 27 27 28 27 25 23 23 23 22 21 19 18 17 17 16 15 16 12 8 9 7 10 13 11 18 15 17 19 22 24 26 28 29 29 29
14 14 12 6 4 5 9 5 3 7 5 2 8 16 20 26 28 27 27 25 23 24 24 22 20 18 17 17 16 17 17 14 12 14 16 10 13 14 18 24 22 24 26 25 27 28 29 29 30
11 11 7 6 5 6 7 2 3 6 1 4 6 11 18 25 24 25 25 26 24 23 22 21 20 19 18 17 16 15 14 13 11 12 12 16 19 21 24 24 27 31 31 30 29 28 30 30 29
13 12 11 14 5 5 6 8 11 7 4 4 1 4 8 12 19 23 23 24 24 22 21 19 20 18 18 18 17 15 14 14 12 10 10 13 20 24 26 29 32 34 34 33 31 32 32 33 33
19 19 16 10 9 8 8 11 14 10 5 2 4 2 6 14 20 19 19 20 19 20 19 18 18 17 16 15 15 14 12 12 11 11 11 14 22 25 28 26 27 30 30 30 30 32 31 33 35
Wind_Direction
286 331 302 267 251 61 51 57 60 49 63 63 49 59 71 38 31 73 109 114 125 127 131 136 132 129 132 130 126 124 121 118 117 116 113 107 104 103 107 104 101 101 103 101 100 96 100 99 98
333 263 271 264 358 68 59 55 54 52 60 89 48 82 63 71 74 94 107 113 128 131 136 136 133 131 129 128 125 124 122 116 114 111 108 104 101 103 108 101 98 103 99 100 103 103 103 101 101
213 269 275 181 39 55 62 59 86 67 50 75 93 49 63 68 57 95 110 113 123 129 136 137 137 135 129 131 122 123 119 114 111 109 105 100 99 97 100 97 97 96 97 102 107 104 101 100 98
305 271 257 69 68 58 56 47 41 84 77 73 124 84 83 43 82 108 108 115 117 125 133 138 140 136 133 137 120 121 115 113 108 102 96 92 85 89 95 95 89 89 98 106 107 107 96 95 89
316 288 246 88 76 76 68 73 58 70 60 54 84 83 84 94 100 103 103 114 113 126 131 138 141 127 132 134 125 121 118 115 105 94 89 84 78 79 80 89 94 92 93 109 108 107 96 93 86
260 238 48 91 99 89 86 98 86 96 98 97 91 93 88 100 100 101 122 117 122 127 130 132 134 130 132 131 128 124 122 118 99 86 78 75 76 76 71 73 86 94 101 111 110 106 100 95 87
245 47 41 92 91 73 76 68 79 74 75 82 110 96 111 108 112 106 96 114 128 128 136 134 135 138 141 132 125 120 117 115 101 76 69 73 67 72 68 71 73 81 95 105 111 107 98 97 91
283 289 43 57 74 89 71 71 46 83 80 108 154 117 135 133 121 111 114 104 113 128 142 140 140 149 142 129 154 126 124 121 101 72 70 68 70 67 67 63 59 64 74 92 115 119 110 96 88
253 44 54 16 46 99 121 89 86 81 86 75 87 114 127 133 131 119 116 119 119 119 126 128 139 148 145 160 142 118 151 175 203 64 76 50 59 61 28 51 50 45 43 48 51 93 132 113 76
266 79 69 45 63 87 61 91 130 105 95 97 101 114 125 133 138 131 134 134 121 129 126 126 144 146 147 150 151 152 151 138 135 86 95 65 97 118 74 20 29 35 26 39 44 25 15 69 292
349 62 31 75 36 43 120 94 124 139 115 123 127 130 133 131 128 132 133 133 134 129 134 138 139 136 149 157 158 165 176 162 160 162 132 225 117 38 27 16 14 4 20 11 15 13 27 272 263
257 91 36 58 97 128 105 126 66 67 97 128 132 135 136 134 136 137 133 140 133 138 137 149 157 155 167 171 175 194 202 156 249 199 200 189 80 17 91 277 38 14 360 341 241 329 245 287 271
282 79 350 83 107 82 126 93 85 93 113 128 134 138 141 138 134 135 139 139 137 137 142 143 150 166 156 177 184 215 257 204 239 274 245 275 118 247 319 268 307 286 254 259 312 298 283 239 281
21 327 302 118 125 163 109 136 111 113 127 133 140 143 145 145 145 144 145 144 149 149 150 160 164 175 169 170 192 215 231 267 298 264 274 298 274 250 227 275 254 282 315 293 278 260 244 262 262
280 254 197 155 155 170 125 157 106 134 138 142 147 149 148 153 155 157 157 158 160 161 161 168 172 180 188 195 218 229 224 243 243 259 256 286 285 292 288 284 281 252 274 309 302 307 294 297 293
235 223 165 143 179 135 212 106 131 147 147 149 153 154 157 161 164 167 168 168 170 170 175 178 176 186 193 203 209 211 230 236 252 257 261 273 285 286 273 286 280 286 288 284 290 298 287 274 265
214 219 128 150 210 147 230 119 140 159 154 154 159 161 164 166 170 172 176 177 181 180 182 185 188 193 200 208 211 228 237 241 241 253 261 265 265 260 267 268 273 282 275 279 282 282 277 277 284
186 212 141 146 174 204 121 113 155 168 161 164 166 169 170 173 177 178 179 181 185 187 192 194 198 198 205 209 223 222 240 252 256 256 260 259 266 268 268 267 268 275 292 284 271 261 267 275 272
323 192 135 112 133 244 175 137 155 172 169 168 169 174 180 180 181 181 183 185 187 192 195 200 203 212 209 218 222 234 237 245 250 263 259 261 267 262 259 262 270 278 284 293 293 280 276 279 276
246 246 164 133 154 251 151 153 150 178 188 170 174 175 181 181 180 185 188 190 192 196 201 205 208 212 218 217 223 222 245 252 263 259 263 264 265 268 271 270 269 266 264 268 271 276 268 273 272
228 230 166 215 181 244 166 165 161 176 191 171 184 178 182 178 180 187 190 195 198 201 203 206 214 219 225 212 236 239 247 257 258 240 266 282 264 282 282 278 275 273 274 270 272 273 272 269 266
221 207 337 227 198 220 204 228 178 171 188 189 190 183 189 177 181 185 192 196 200 205 206 207 216 216 217 216 212 230 236 264 281 318 307 272 292 288 295 293 291 292 289 286 285 278 278 275 271
290 130 222 240 229 256 189 269 172 177 184 189 200 191 191 187 184 183 190 195 200 201 204 207 215 221 219 232 217 233 254 261 286 296 317 331 322 328 327 312 315 311 305 298 304 297 286 281 279
159 223 227 242 252 225 240 227 149 185 195 201 187 189 198 189 190 184 187 189 195 198 200 203 211 216 217 220 232 235 220 225 221 266 319 325 330 320 301 307 311 319 312 308 300 294 295 292 285
213 206 202 216 222 249 171 191 274 38 77 353 268 182 187 193 195 190 185 189 192 195 197 201 206 214 219 225 230 231 223 219 222 250 301 318 322 323 314 309 309 304 300 296 297 297 289 287 285
218 230 251 181 216 184 155 236 235 50 73 188 263 252 183 193 195 195 189 189 191 194 198 201 208 211 213 215 216 218 216 216 225 272 274 295 305 307 302 311 297 288 294 297 290 289 289 282 278
195 242 278 295 250 297 169 176 228 167 234 242 239 231 205 187 199 196 198 193 193 197 201 204 207 209 211 210 213 212 216 213 218 234 254 287 277 285 298 297 309 308 303 290 279 287 285 283 284
269 214 216 251 242 234 152 155 95 150 188 91 252 220 231 189 197 194 206 197 200 202 204 208 211 209 204 202 210 218 220 231 233 245 261 273 285 295 303 310 312 312 309 303 291 286 282 280 277
211 244 239 279 243 298 214 136 104 98 9 332 174 207 234 206 205 200 199 206 205 208 211 213 213 214 207 207 218 218 222 222 227 244 261 277 288 297 305 308 310 312 311 308 298 284 279 281 279
216 207 228 246 188 257 310 109 123 119 107 352 323 101 259 205 214 202 198 201 205 219 213 211 216 215 213 216 210 214 218 222 233 254 267 280 294 301 306 301 297 300 299 298 290 281 277 274 275
Height
1500 1499 1503 1503 1497 1476 1490 1494 1488 1491 1497 1501 1503 1501 1512 1515 1514 1530 1535 1535 1538 1539 1540 1543 1543 1547 1549 1551 1554 1556 1559 1561 1563 1564 1566 1566 1567 1568 1570 1571 1572 1572 1573 1573 1574 1574 1574 1576 1577
1503 1506 1504 1497 1484 1493 1500 1493 1498 1499 1502 1503 1503 1506 1514 1522 1526 1532 1536 1538 1539 1540 1543 1543 1547 1551 1554 1556 1558 1561 1563 1565 1566 1568 1569 1570 1571 1571 1572 1574 1575 1575 1576 1576 1577 1577 1577 1579 1579
1503 1505 1501 1480 1483 1498 1504 1496 1496 1502 1502 1502 1507 1513 1520 1532 1532 1536 1539 1540 1541 1542 1545 1548 1552 1553 1557 1561 1563 1565 1567 1568 1570 1571 1572 1573 1574 1574 1575 1576 1577 1578 1578 1579 1580 1579 1580 1581 1582
1510 1505 1496 1483 1498 1494 1498 1495 1495 1498 1506 1507 1509 1520 1532 1534 1536 1539 1541 1543 1544 1546 1549 1552 1556 1559 1561 1566 1567 1569 1570 1572 1573 1574 1575 1577 1577 1576 1578 1579 1580 1581 1581 1581 1583 1583 1583 1583 1584
1510 1497 1485 1487 1496 1495 1497 1500 1504 1505 1509 1510 1515 1528 1536 1540 1541 1543 1544 1546 1546 1549 1550 1555 1559 1562 1566 1569 1571 1572 1574 1576 1577 1578 1579 1579 1579 1580 1581 1581 1582 1583 1583 1583 1585 1586 1586 1586 1586
1505 1493 1491 1494 1495 1494 1496 1499 1502 1508 1513 1518 1522 1529 1540 1545 1545 1547 1546 1548 1550 1551 1556 1559 1557 1565 1570 1572 1573 1576 1578 1579 1581 1581 1582 1582 1582 1583 1583 1584 1584 1586 1586 1586 1587 1587 1588 1588 1588
1495 1483 1490 1485 1492 1499 1500 1499 1502 1508 1513 1518 1521 1530 1544 1547 1549 1549 1549 1551 1552 1556 1557 1561 1564 1566 1573 1574 1576 1579 1581 1582 1584 1584 1585 1585 1585 1585 1585 1586 1587 1587 1588 1588 1588 1589 1590 1590 1590
1494 1483 1486 1483 1492 1502 1499 1503 1507 1513 1520 1522 1522 1530 1544 1549 1550 1551 1554 1555 1556 1559 1562 1566 1569 1571 1573 1577 1579 1579 1583 1585 1586 1586 1587 1587 1587 1588 1588 1588 1588 1589 1590 1589 1590 1590 1591 1592 1592
1497 1488 1501 1498 1495 1498 1498 1505 1514 1518 1521 1524 1525 1532 1542 1548 1553 1555 1557 1559 1561 1564 1565 1567 1572 1574 1577 1580 1584 1584 1587 1587 1588 1588 1589 1589 1590 1590 1590 1591 1590 1591 1591 1591 1591 1591 1592 1593 1593
1488 1490 1500 1497 1500 1498 1502 1507 1510 1516 1525 1531 1535 1542 1546 1550 1554 1557 1559 1562 1564 1566 1569 1573 1575 1578 1581 1584 1585 1586 1589 1590 1589 1590 1591 1592 1592 1593 1592 1592 1592 1592 1592 1592 1592 1592 1592 1593 1594
1491 1495 1494 1497 1502 1497 1503 1508 1506 1509 1519 1531 1537 1543 1548 1550 1555 1559 1561 1564 1567 1570 1573 1575 1577 1581 1583 1584 1586 1587 1588 1589 1590 1591 1593 1592 1593 1593 1594 1593 1592 1592 1592 1591 1591 1593 1592 1596 1595
1495 1499 1500 1500 1503 1501 1502 1506 1510 1512 1522 1533 1540 1545 1549 1551 1554 1560 1564 1565 1569 1571 1574 1576 1580 1582 1585 1587 1587 1588 1589 1590 1591 1592 1591 1592 1593 1593 1594 1594 1594 1594 1594 1594 1593 1595 1593 1594 1594
1496 1499 1500 1501 1505 1503 1507 1508 1517 1522 1530 1536 1542 1547 1550 1553 1556 1559 1563 1567 1570 1574 1576 1577 1581 1583 1586 1588 1588 1589 1590 1591 1593 1592 1591 1592 1592 1593 1594 1595 1594 1593 1593 1594 1592 1593 1593 1592 1593
1501 1502 1500 1501 1506 1507 1508 1513 1517 1529 1534 1539 1544 1547 1550 1554 1558 1561 1565 1568 1571 1574 1577 1580 1582 1583 1585 1587 1589 1589 1590 1590 1591 1592 1591 1589 1590 1591 1592 1592 1593 1593 1591 1591 1590 1590 1591 1590 1591
1503 1502 1494 1500 1503 1507 1507 1511 1519 1529 1535 1540 1544 1548 1552 1555 1559 1562 1566 1569 1572 1575 1578 1580 1582 1584 1585 1587 1588 1590 1592 1592 1593 1593 1592 1590 1589 1589 1590 1590 1590 1591 1591 1588 1588 1588 1588 1588 1588
1499 1493 1498 1497 1501 1506 1506 1521 1519 1528 1533 1538 1543 1547 1552 1556 1559 1563 1566 1569 1572 1575 1578 1580 1582 1584 1586 1587 1589 1590 1591 1591 1592 1593 1593 1591 1590 1589 1589 1591 1591 1589 1588 1587 1587 1585 1586 1586 1586
1494 1494 1496 1502 1496 1500 1501 1515 1518 1525 1532 1537 1542 1547 1551 1555 1559 1562 1565 1568 1571 1574 1576 1579 1581 1583 1585 1586 1587 1588 1588 1589 1591 1591 1591 1591 1589 1589 1589 1590 1590 1587 1588 1587 1585 1585 1584 1584 1582
1495 1488 1491 1501 1499 1496 1495 1509 1517 1521 1527 1534 1539 1545 1548 1552 1556 1560 1563 1567 1570 1572 1575 1577 1579 1581 1583 1584 1584 1586 1588 1588 1588 1589 1589 1588 1588 1586 1586 1588 1587 1585 1585 1583 1583 1582 1581 1580 1580
1483 1483 1492 1489 1493 1495 1492 1504 1514 1518 1520 1528 1535 1541 1545 1549 1554 1558 1561 1565 1568 1571 1573 1574 1576 1578 1580 1581 1583 1585 1586 1586 1586 1586 1586 1586 1585 1584 1584 1585 1585 1584 1582 1580 1579 1580 1578 1577 1577
1492 1491 1490 1492 1493 1496 1493 1500 1507 1514 1516 1522 1528 1536 1540 1545 1550 1555 1559 1562 1565 1568 1570 1571 1573 1575 1576 1579 1581 1583 1584 1584 1584 1583 1583 1583 1583 1583 1582 1581 1581 1581 1580 1579 1578 1577 1576 1575 1575
1492 1489 1489 1496 1495 1493 1493 1501 1504 1508 1513 1516 1523 1530 1534 1539 1545 1551 1555 1559 1562 1565 1566 1568 1569 1572 1573 1576 1579 1580 1579 1579 1578 1570 1578 1580 1577 1578 1578 1578 1577 1575 1575 1576 1574 1574 1572 1572 1571
1491 1482 1487 1491 1500 1508 1490 1514 1504 1502 1508 1512 1518 1524 1529 1534 1541 1547 1552 1555 1558 1561 1565 1567 1567 1569 1571 1573 1576 1577 1578 1577 1577 1564 1575 1577 1577 1577 1576 1574 1574 1573 1571 1571 1570 1569 1569 1569 1567
1487 1485 1491 1492 1496 1491 1495 1503 1495 1494 1505 1506 1511 1518 1524 1530 1536 1542 1547 1551 1555 1559 1561 1563 1565 1566 1568 1570 1572 1575 1576 1578 1578 1578 1577 1576 1574 1573 1572 1571 1571 1569 1568 1567 1565 1565 1565 1563 1562
1484 1492 1494 1493 1490 1507 1494 1499 1497 1489 1490 1492 1498 1508 1518 1525 1531 1537 1543 1547 1552 1555 1558 1561 1561 1563 1565 1567 1569 1571 1573 1575 1576 1577 1577 1575 1575 1574 1571 1571 1570 1568 1566 1564 1563 1561 1559 1558 1555
1491 1496 1513 1520 1514 1511 1480 1497 1491 1482 1487 1492 1492 1498 1509 1519 1526 1532 1537 1542 1547 1551 1554 1557 1558 1559 1561 1564 1566 1568 1570 1571 1573 1574 1575 1574 1573 1572 1571 1569 1568 1567 1564 1562 1560 1557 1555 1553 1551
1492 1485 1493 1523 1510 1497 1491 1510 1496 1484 1492 1496 1500 1497 1501 1512 1521 1528 1533 1539 1543 1547 1551 1554 1555 1556 1558 1560 1562 1564 1566 1568 1570 1570 1571 1572 1571 1570 1568 1566 1564 1562 1560 1558 1555 1552 1550 1548 1546
1488 1494 1473 1485 1481 1495 1486 1491 1483 1486 1490 1496 1498 1498 1497 1505 1514 1522 1529 1534 1539 1543 1547 1550 1552 1553 1555 1557 1559 1561 1562 1564 1567 1566 1565 1567 1566 1565 1564 1560 1558 1556 1553 1551 1549 1546 1544 1541 1539
1478 1478 1498 1490 1513 1521 1493 1499 1496 1494 1491 1493 1497 1496 1498 1501 1511 1518 1525 1529 1535 1540 1544 1547 1550 1550 1552 1555 1557 1559 1560 1560 1562 1562 1561 1559 1559 1557 1556 1554 1552 1549 1545 1542 1540 1538 1536 1534 1531
1486 1487 1479 1473 1480 1499 1508 1497 1484 1492 1495 1496 1497 1499 1500 1504 1510 1514 1520 1525 1532 1536 1540 1544 1547 1550 1551 1553 1555 1557 1558 1558 1557 1557 1556 1554 1552 1551 1550 1548 1545 1542 1539 1536 1532 1529 1526 1523 1522
1466 1477 1479 1492 1506 1492 1494 1501 1483 1490 1495 1498 1497 1501 1504 1506 1509 1513 1518 1523 1529 1534 1536 1541 1545 1547 1550 1551 1552 1553 1554 1554 1554 1553 1552 1550 1547 1545 1543 1541 1537 1534 1530 1527 1523 1520 1518 1516 1514